Regional Weather Roundup
Issued by NWS

Home | Current Version | Previous Version | Text Only | Print | Product List | Glossary On
Versions: 1 2 3 4 5 6 7 8 9 10 11 12 13 14 15 16 17 18 19 20 21 22 23 24 25 26 27 28 29 30 31 32 33 34 35 36 37 38 39 40 41 42 43 44 45 46 47 48 49 50
000
ASUS43 KOAX 180010
RWRNE

WEATHER ROUNDUP FOR NEBRASKA
NATIONAL WEATHER SERVICE OMAHA NE
600 PM CST SAT FEB 17 2018

NOTES: SATELLITE DATA IS BEING USED TO AUGMENT CLOUD COVER ABOVE
       12000 FEET.
       "FAIR" INDICATES FEW OR NO CLOUDS BELOW 12,000 FEET WITH NO
       SIGNIFICANT WEATHER AND/OR OBSTRUCTIONS TO VISIBILITY.


NEZ001>004-019>022-054>056-180100-
NEBRASKA PANHANDLE

CITY           SKY/WX    TMP DP  RH WIND       PRES   REMARKS
SCOTTSBLUFF    PTCLDY    48  14  25 W9        29.83F
6HR MIN TEMP:  42; 6HR MAX TEMP:  52;

ALLIANCE       PTCLDY    45  18  34 W12       29.84F
6HR MIN TEMP:  40; 6HR MAX TEMP:  50;

CHADRON        PTCLDY    34  23  64 N5        29.81F WCI  30
6HR MIN TEMP:  33; 6HR MAX TEMP:  38;

GORDON         FAIR      34  24  65 SE7       29.85F WCI  28
6HR MIN TEMP:  32; 6HR MAX TEMP:  38;

KIMBALL        PTCLDY    47  13  25 SW18      29.88F
SIDNEY         CLEAR     47  13  25 S13       29.90F
6HR MIN TEMP:  44; 6HR MAX TEMP:  53;

$$

NEZ057>060-069>072-079>082-180100-
SOUTHWEST NEBRASKA

CITY           SKY/WX    TMP DP  RH WIND       PRES   REMARKS
NORTH PLATTE   CLEAR     39  24  55 SE9       29.99F WCI  33
6HR MIN TEMP:  39; 6HR MAX TEMP:  50;

IMPERIAL       CLEAR     43  23  45 SE10      29.98F
6HR MIN TEMP:  43; 6HR MAX TEMP:  51;

LEXINGTON      CLEAR     42  24  49 E7        30.04F
MCCOOK         PTCLDY    46  19  34 S7        30.03F
6HR MIN TEMP:  45; 6HR MAX TEMP:  49;

OGALLALA       PTCLDY    46  22  38 S9        29.95S
$$

NEZ005>010-023>029-035>040-094-180100-
NORTH CENTRAL NEBRASKA

CITY           SKY/WX    TMP DP  RH WIND       PRES   REMARKS
VALENTINE      CLEAR     37  23  56 SE8       29.95F WCI  31
6HR MIN TEMP:  37; 6HR MAX TEMP:  42;

AINSWORTH      CLEAR     34  25  68 SE5       29.98F WCI  30
BROKEN BOW     CLEAR     39  22  50 SE6       30.02F WCI  35
6HR MIN TEMP:  39; 6HR MAX TEMP:  44;

O`NEILL        CLEAR     34  26  71 CALM      30.05F
ORD            CLEAR     41  23  48 CALM      30.05S
6HR MIN TEMP:  40; 6HR MAX TEMP:  46;

THEDFORD       CLEAR     40  21  46 SE7       29.96F
$$

NEZ041-046>049-061>064-073>077-083>087-180100-
SOUTH CENTRAL NEBRASKA

CITY           SKY/WX    TMP DP  RH WIND       PRES   REMARKS
GRAND ISLAND   CLEAR     40  28  62 E3        30.09S
6HR MIN TEMP:  40; 6HR MAX TEMP:  48;

AURORA         CLEAR     40  24  54 E3        30.09R
HASTINGS       CLEAR     42  25  50 NW5       30.09S
6HR MIN TEMP:  42; 6HR MAX TEMP:  48;

HEBRON         CLEAR     48  21  34 N3        30.11R
HOLDREGE       CLEAR     42  25  52 E6        30.06F
KEARNEY        CLEAR     41  28  60 E5        30.08S
YORK           CLEAR     39  25  56 CALM      30.10S
$$

NEZ011>018-030>034-042>045-180100-
NORTHEAST NEBRASKA

CITY           SKY/WX    TMP DP  RH WIND       PRES   REMARKS
NORFOLK        CLEAR     36  27  69 E8        30.07S WCI  30
6HR MIN TEMP:  36; 6HR MAX TEMP:  41;

ALBION         CLEAR     38  26  61 N3        30.08S
BLAIR          CLEAR     37  28  67 N7        30.11R WCI  32
COLUMBUS       CLEAR     37  28  70 NE3       30.11R
FREMONT        CLEAR     39  28  66 CALM      30.12R
TEKAMAH        CLEAR     34  28  79 N7        30.12S WCI  28
6HR MIN TEMP:  34; 6HR MAX TEMP:  43;

WAYNE          CLEAR     32  29  89 CALM      30.10S
$$

NEZ050>053-065>068-078-088>093-180100-
SOUTHEAST NEBRASKA

CITY           SKY/WX    TMP DP  RH WIND       PRES   REMARKS
LINCOLN        CLEAR     42  24  49 N5        30.12S
6HR MIN TEMP:  42; 6HR MAX TEMP:  50;

OMAHA EPPLEY   PTCLDY    37  27  67 N9        30.12R WCI  30
6HR MIN TEMP:  37; 6HR MAX TEMP:  48;

BEATRICE       CLEAR     44  25  47 NE6       30.12R
FALLS CITY     CLEAR     45  19  35 NW6       30.12R
6HR MIN TEMP:  44; 6HR MAX TEMP:  53;

NEBRASKA CITY  CLEAR     41  24  50 NW9       30.13R
PLATTSMOUTH    CLEAR     40  26  56 W6        30.12R
$$

NEZ044-045-051>053-067-180100-
OMAHA AREA

CITY           SKY/WX    TMP DP  RH WIND       PRES   REMARKS
OMAHA EPPLEY   PTCLDY    37  27  67 N9        30.12R WCI  30
6HR MIN TEMP:  37; 6HR MAX TEMP:  48;

BLAIR          CLEAR     37  28  67 N7        30.11R WCI  32
FREMONT        CLEAR     39  28  66 CALM      30.12R
MILLARD        CLEAR     43  28  55 N3        30.12R
OFFUTT AFB     CLEAR     41  25  53 NW8       30.11R
PLATTSMOUTH    CLEAR     40  26  56 W6        30.12R
WAHOO          FAIR      38  26  62 CALM      30.11S
$$



USA.gov is the U.S. government's official web portal to all federal, state and local government web resources and services.